$DATE,$TIME,DM0600B,DM0602B,DM0604B,DM0614B,DM0616B,DM0618B,DM0624B,DM0628B,DM0630B,DM0634B,DM0606B,DM0608B,DM0610B
07/12/94,00:00:00,37,14,25,0,0,0,0,56,38,0,6,11,6
07/12/94,00:05:00,33,15,21,0,0,0,0,56,24,0,5,9,5
07/12/94,00:10:00,33,13,28,0,0,0,0,56,24,0,6,8,5
07/12/94,00:15:00,36,16,15,0,0,0,0,57,24,0,6,7,5
07/12/94,00:20:00,38,18,25,0,0,0,0,56,24,0,6,6,5
07/12/94,00:25:00,36,20,31,0,0,0,0,57,24,0,6,8,6
07/12/94,00:30:00,25,5,23,0,0,0,0,56,24,0,6,18,6
07/12/94,00:35:00,7,9,16,0,0,0,0,57,24,0,6,14,6
07/12/94,00:40:00,17,5,10,0,0,0,0,57,25,0,14,14,10
07/12/94,00:45:00,31,15,25,0,0,0,0,56,24,0,19,21,15
07/12/94,00:50:00,35,17,32,0,0,0,0,56,24,0,14,14,11
07/12/94,00:55:00,33,1,30,0,0,0,0,56,24,0,11,11,9
07/12/94,01:00:00,33,17,28,0,0,0,0,56,24,0,9,8,8
07/12/94,01:05:00,0,13,0,0,0,0,0,56,24,0,8,8,7
07/12/94,01:10:00,6,14,21,0,0,0,0,57,24,0,14,18,10
07/12/94,01:15:00,1,0,29,0,0,0,0,57,24,0,19,21,16
07/12/94,01:20:00,31,12,33,0,0,0,0,56,24,0,14,14,11
07/12/94,01:25:00,27,12,31,0,0,0,0,57,24,0,11,11,9
07/12/94,01:30:00,22,8,28,0,0,0,0,56,24,0,9,9,8
07/12/94,01:35:00,27,6,28,0,0,0,0,56,24,0,8,7,7
07/12/94,01:40:00,32,19,27,0,0,0,0,57,24,0,7,6,6
07/12/94,01:45:00,37,19,34,0,0,0,0,57,24,0,8,15,6
07/12/94,01:50:00,27,11,30,0,0,0,0,56,24,0,15,19,6
07/12/94,01:55:00,6,10,24,0,0,0,0,56,24,0,13,13,6
07/12/94,02:00:00,1,0,3,0,0,0,0,57,24,0,11,13,8
07/12/94,02:05:00,29,18,38,0,0,0,0,57,24,0,18,23,21
07/12/94,02:10:00,29,12,22,0,0,0,0,57,24,0,19,20,14
07/12/94,02:15:00,9,5,10,0,0,0,0,57,24,0,14,13,11
07/12/94,02:20:00,0,0,7,0,0,0,0,57,24,0,12,16,10
07/12/94,02:25:00,0,6,10,0,0,0,0,57,25,0,22,28,23
07/12/94,02:30:00,0,0,8,0,0,0,0,58,25,0,21,20,15
07/12/94,02:35:00,0,0,4,0,0,0,0,58,25,0,19,22,20
07/12/94,02:40:00,0,3,0,0,0,0,0,57,25,0,25,28,20
07/12/94,02:45:00,0,0,24,0,0,0,0,58,25,0,18,19,17
07/12/94,02:50:00,16,1,21,0,0,0,0,57,25,0,27,30,22
07/12/94,02:55:00,11,0,26,0,0,0,0,57,25,0,20,21,14
07/12/94,03:00:00,13,15,38,0,0,0,0,57,25,0,18,22,22
07/12/94,03:05:00,0,0,0,0,0,0,0,57,25,0,22,24,17
07/12/94,03:10:00,39,19,31,0,0,0,0,57,25,0,16,19,17
07/12/94,03:15:00,36,4,14,0,0,0,0,57,24,0,22,26,17
07/12/94,03:20:00,17,7,30,0,0,0,0,57,24,0,17,17,12
07/12/94,03:25:00,23,13,30,0,0,0,0,57,24,0,13,16,10
07/12/94,03:30:00,1,0,21,0,0,0,0,57,24,0,14,26,14
07/12/94,03:35:00,0,2,0,0,0,0,0,58,25,0,24,17,20
07/12/94,03:40:00,0,0,12,0,0,0,0,57,25,0,19,22,14
07/12/94,03:45:00,0,7,0,0,0,0,0,58,25,0,22,31,26
07/12/94,03:50:00,0,14,0,0,0,0,0,58,25,0,24,18,16
07/12/94,03:55:00,0,5,20,0,0,0,0,58,25,0,20,26,24
07/12/94,04:00:00,33,11,19,0,0,0,0,58,25,0,29,28,17
07/12/94,04:05:00,0,16,0,0,0,0,0,57,25,0,21,22,24
07/12/94,04:10:00,33,30,0,0,0,0,0,57,24,0,24,30,18
07/12/94,04:15:00,11,27,0,0,0,0,0,58,24,0,20,18,13
07/12/94,04:20:00,18,24,18,0,0,0,0,57,24,0,15,21,21
07/12/94,04:25:00,11,23,0,0,0,0,0,57,24,0,18,27,16
07/12/94,04:30:00,0,20,0,0,0,0,0,58,24,0,25,16,12
07/12/94,04:35:00,0,8,0,0,0,0,0,58,24,0,17,26,26
07/12/94,04:40:00,0,0,4,0,0,0,0,57,25,0,25,28,16
07/12/94,04:45:00,0,0,7,0,0,0,0,57,25,0,24,21,26
07/12/94,04:50:00,1,0,4,0,0,0,0,57,25,0,21,34,17
07/12/94,04:55:00,0,3,0,0,0,0,0,57,25,0,30,20,27
07/12/94,05:00:00,2,1,19,0,0,0,0,58,25,0,21,29,21
07/12/94,05:05:00,11,0,0,0,0,0,0,58,25,0,30,27,24
07/12/94,05:10:00,0,1,0,0,0,0,0,58,25,0,22,25,26
07/12/94,05:15:00,0,0,0,0,0,0,0,58,25,0,28,34,20
07/12/94,05:20:00,0,9,0,0,0,0,0,58,25,0,26,22,31
07/12/94,05:25:00,0,14,0,0,0,0,0,58,25,0,25,34,22
07/12/94,05:30:00,0,0,1,0,0,0,0,58,25,0,29,24,24
07/12/94,05:35:00,53,21,0,0,0,0,0,58,25,0,24,28,28
07/12/94,05:40:00,49,3,14,0,0,0,0,58,25,0,30,29,18
07/12/94,05:45:00,70,25,31,0,0,0,0,57,24,0,18,17,12
07/12/94,05:50:00,65,15,18,0,0,0,0,56,24,0,13,12,10
07/12/94,05:55:00,66,8,17,0,0,0,0,56,24,0,11,10,8
07/12/94,06:00:00,64,9,13,0,0,0,0,56,24,0,10,9,7
07/12/94,06:05:00,62,11,20,0,0,0,0,56,24,0,8,8,7
07/12/94,06:10:00,68,9,13,0,0,0,0,56,24,0,8,7,6
07/12/94,06:15:00,45,9,19,0,0,0,0,56,24,0,7,6,6
07/12/94,06:20:00,72,11,8,0,0,0,0,56,24,0,7,6,6
07/12/94,06:25:00,72,13,19,0,0,0,0,56,24,0,7,6,5
07/12/94,06:30:00,73,10,13,0,0,0,0,56,24,0,6,5,5
07/12/94,06:35:00,66,6,17,0,0,0,0,56,24,0,6,6,5
07/12/94,06:40:00,73,11,21,0,0,0,0,56,24,0,6,6,5
07/12/94,06:45:00,63,11,6,0,0,0,0,56,25,0,6,6,6
07/12/94,06:50:00,29,8,12,0,0,0,0,56,25,0,6,5,6
07/12/94,06:55:00,45,16,16,0,0,0,0,56,26,0,6,5,6
07/12/94,07:00:00,75,12,24,0,0,0,0,55,25,0,6,5,5
07/12/94,07:05:00,50,3,14,0,0,0,0,56,26,0,6,5,6
07/12/94,07:10:00,37,2,16,0,0,0,0,57,26,0,5,8,5
07/12/94,07:15:00,43,4,9,0,0,0,0,56,26,0,6,19,5
07/12/94,07:20:00,25,8,0,0,0,0,0,57,26,0,16,15,5
07/12/94,07:25:00,0,0,13,0,0,0,0,57,26,0,16,11,7
07/12/94,07:30:00,0,16,7,0,0,0,0,57,26,0,12,20,17
07/12/94,07:35:00,40,25,22,0,0,0,0,57,26,0,10,19,12
07/12/94,07:40:00,40,19,9,0,0,0,0,56,26,0,8,13,9
07/12/94,07:45:00,15,13,18,0,0,0,0,57,26,0,10,11,8
07/12/94,07:50:00,0,9,26,0,0,0,0,57,26,0,21,21,10
07/12/94,07:55:00,18,2,0,0,0,0,0,57,26,0,17,21,16
07/12/94,08:00:00,11,14,0,0,0,0,0,57,26,0,12,13,12
07/12/94,08:05:00,21,9,13,0,0,0,0,57,26,0,18,21,12
07/12/94,08:10:00,1,11,8,0,0,0,0,57,26,0,21,23,19
07/12/94,08:15:00,16,3,5,0,0,0,0,58,26,0,15,15,13
07/12/94,08:20:00,21,18,15,0,0,0,0,57,26,0,17,22,12
07/12/94,08:25:00,4,17,0,0,0,0,0,57,26,0,22,23,19
07/12/94,08:30:00,6,15,30,0,0,0,0,58,26,0,15,15,12
07/12/94,08:35:00,28,7,8,0,0,0,0,57,26,0,18,23,16
07/12/94,08:40:00,2,4,10,0,0,0,0,57,26,0,22,23,17
07/12/94,08:45:00,24,6,11,0,0,0,0,58,26,0,14,15,12
07/12/94,08:50:00,4,0,5,0,0,0,0,57,26,0,19,23,18
07/12/94,08:55:00,15,15,0,0,0,0,0,58,26,0,21,22,16
07/12/94,09:00:00,6,10,9,0,0,0,0,58,26,0,15,17,12
07/12/94,09:05:00,30,8,0,0,0,0,0,57,26,0,23,26,22
07/12/94,09:10:00,13,7,0,0,0,0,0,58,26,0,17,18,14
07/12/94,09:15:00,45,9,9,0,0,0,0,57,26,0,17,19,12
07/12/94,09:20:00,0,18,10,0,0,0,0,57,26,0,22,26,19
07/12/94,09:25:00,18,12,35,0,0,0,0,58,26,0,15,16,12
07/12/94,09:30:00,11,18,12,0,0,0,0,57,26,0,19,21,18
07/12/94,09:35:00,7,4,7,0,0,0,0,58,26,0,21,24,18
07/12/94,09:40:00,0,2,7,0,0,0,0,58,26,0,15,16,12
07/12/94,09:45:00,6,13,1,0,0,0,0,57,26,0,21,24,20
07/12/94,09:50:00,35,14,0,0,0,0,0,57,26,0,20,21,16
07/12/94,09:55:00,26,13,4,0,0,0,0,58,26,0,15,17,12
07/12/94,10:00:00,0,0,0,0,0,0,0,58,26,0,23,26,21
07/12/94,10:05:00,27,10,4,0,0,0,0,58,26,0,17,19,14
07/12/94,10:10:00,0,2,40,0,0,0,0,58,26,0,16,20,13
07/12/94,10:15:00,9,13,2,0,0,0,0,57,26,0,24,26,20
07/12/94,10:20:00,11,10,0,0,0,0,0,58,26,0,17,17,13
07/12/94,10:25:00,24,6,34,0,0,0,0,58,26,0,18,22,19
07/12/94,10:30:00,18,15,11,0,0,0,0,57,26,0,23,25,17
07/12/94,10:35:00,28,16,34,0,0,0,0,58,26,0,15,17,12
07/12/94,10:40:00,6,9,4,0,0,0,0,58,26,0,21,25,22
07/12/94,10:45:00,13,20,7,0,0,0,0,57,26,0,20,22,15
07/12/94,10:50:00,20,17,23,0,0,0,0,58,26,0,16,19,16
07/12/94,10:55:00,4,10,7,0,0,0,0,58,26,0,24,27,20
07/12/94,11:00:00,11,19,7,0,0,0,0,57,26,0,18,18,13
07/12/94,11:05:00,16,24,5,0,0,0,0,58,26,0,18,21,18
07/12/94,11:10:00,6,6,3,0,0,0,0,58,26,0,24,26,17
07/12/94,11:15:00,25,9,0,0,0,0,0,58,26,0,16,16,12
07/12/94,11:20:00,11,8,7,0,0,0,0,57,59,0,20,24,22
07/12/94,11:25:00,0,12,10,0,0,0,0,58,26,0,22,23,16
07/12/94,11:30:00,12,14,11,0,0,0,0,58,26,0,15,17,12
07/12/94,11:35:00,10,18,0,0,0,0,0,58,26,0,22,25,22
07/12/94,11:40:00,1,1,9,0,0,0,0,58,26,0,19,20,14
07/12/94,11:45:00,3,14,3,0,0,0,0,58,26,0,16,19,16
07/12/94,11:50:00,0,5,0,0,0,0,0,57,26,0,24,27,19
07/12/94,11:55:00,4,7,35,0,0,0,0,58,26,0,17,18,13
07/12/94,12:00:00,19,3,27,0,0,0,0,58,26,0,18,22,19
07/12/94,12:05:00,1,12,1,0,0,0,0,57,26,0,22,26,16
07/12/94,12:10:00,36,4,0,0,0,0,0,58,26,0,16,16,12
07/12/94,12:15:00,17,22,4,0,0,0,0,58,26,0,21,23,22
07/12/94,12:20:00,10,4,28,0,0,0,0,57,26,0,20,22,15
07/12/94,12:25:00,0,22,24,0,0,0,0,58,26,0,16,18,13
07/12/94,12:30:00,17,9,19,0,0,0,0,58,26,0,23,27,21
07/12/94,12:35:00,11,4,11,0,0,0,0,58,26,0,18,18,13
07/12/94,12:40:00,0,19,0,0,0,0,0,57,26,0,17,21,17
07/12/94,12:45:00,1,24,0,0,0,0,0,58,26,0,22,26,17
07/12/94,12:50:00,8,28,0,0,0,0,0,57,26,0,16,17,12
07/12/94,12:55:00,8,12,5,0,0,0,0,58,26,0,21,25,23
07/12/94,13:00:00,0,20,17,0,0,0,0,58,26,0,22,22,15
07/12/94,13:05:00,0,18,13,0,0,0,0,58,26,0,15,18,13
07/12/94,13:10:00,7,9,17,0,0,0,0,57,26,0,22,27,22
07/12/94,13:15:00,35,30,22,0,0,0,0,58,26,0,19,19,14
07/12/94,13:20:00,17,8,5,0,0,0,0,57,26,0,15,18,14
07/12/94,13:25:00,13,9,22,0,0,0,0,58,26,0,24,27,20
07/12/94,13:30:00,10,8,2,0,0,0,0,58,26,0,19,19,13
07/12/94,13:35:00,11,18,22,0,0,0,0,57,26,0,16,20,16
07/12/94,13:40:00,2,10,16,0,0,0,0,57,26,0,24,27,19
07/12/94,13:45:00,0,18,25,0,0,0,0,58,26,0,18,17,13
07/12/94,13:50:00,20,12,8,0,0,0,0,58,26,0,18,22,18
07/12/94,13:55:00,13,23,0,0,0,0,0,57,26,0,23,25,17
07/12/94,14:00:00,0,15,10,0,0,0,0,58,26,0,15,16,12
07/12/94,14:05:00,4,25,22,0,0,0,0,58,26,0,20,24,21
07/12/94,14:10:00,14,24,25,0,0,0,0,57,26,0,19,21,16
07/12/94,14:15:00,34,29,16,0,0,0,0,57,26,0,13,13,11
07/12/94,14:20:00,43,18,20,0,0,0,0,57,26,0,14,21,9
07/12/94,14:25:00,37,19,25,0,0,0,0,57,26,0,16,18,8
07/12/94,14:30:00,34,19,13,0,0,0,0,57,26,0,13,12,7
07/12/94,14:35:00,20,24,11,0,0,0,0,57,26,0,10,12,6
07/12/94,14:40:00,13,15,0,0,0,0,0,57,26,0,15,22,6
07/12/94,14:45:00,0,13,10,0,0,0,0,57,26,0,19,17,9
07/12/94,14:50:00,0,19,10,0,0,0,0,58,26,0,14,15,19
07/12/94,14:55:00,31,15,22,0,0,0,0,57,25,0,11,22,13
07/12/94,15:00:00,35,9,22,0,0,0,0,57,25,0,9,15,10
07/12/94,15:05:00,0,3,0,0,0,0,0,58,26,0,9,12,8
07/12/94,15:10:00,0,7,0,0,0,0,0,57,26,0,19,21,18
07/12/94,15:15:00,0,2,0,0,0,0,0,58,26,0,25,28,18
07/12/94,15:20:00,0,1,0,0,0,0,0,58,26,0,18,20,17
07/12/94,15:25:00,0,0,0,0,0,0,0,58,26,0,27,30,26
07/12/94,15:30:00,25,12,0,0,0,0,0,58,26,0,24,23,19
07/12/94,15:35:00,0,31,0,0,0,0,0,58,26,0,25,27,26
07/12/94,15:40:00,0,1,0,0,0,0,0,57,26,0,30,32,24
07/12/94,15:45:00,4,14,0,0,0,0,0,58,26,0,22,23,22
07/12/94,15:50:00,0,0,0,0,0,0,0,58,26,0,32,34,31
07/12/94,15:55:00,0,0,0,0,0,0,0,58,26,0,22,22,20
07/12/94,16:00:00,0,0,0,0,0,0,0,58,26,0,30,31,30
07/12/94,16:05:00,0,0,0,0,0,0,0,58,26,0,27,32,24
07/12/94,16:10:00,0,0,3,0,0,0,0,58,26,0,27,26,24
07/12/94,16:15:00,0,0,17,0,0,0,0,58,26,0,33,37,31
07/12/94,16:20:00,0,0,0,0,0,0,0,58,26,0,23,23,23
07/12/94,16:25:00,0,0,0,0,0,0,0,58,26,0,33,33,29
07/12/94,16:30:00,0,0,0,0,0,0,0,58,26,0,24,27,27
07/12/94,16:35:00,0,0,0,0,0,0,0,58,26,0,30,29,22
07/12/94,16:40:00,0,0,0,0,0,0,0,58,26,0,30,36,32
07/12/94,16:45:00,0,0,0,0,0,0,0,58,26,0,25,24,24
07/12/94,16:50:00,0,0,0,0,0,0,0,58,26,0,35,37,27
07/12/94,16:55:00,0,0,0,0,0,0,0,58,26,0,24,23,30
07/12/94,17:00:00,0,0,0,0,0,0,0,58,26,0,34,33,21
07/12/94,17:05:00,0,0,0,0,0,0,0,58,26,0,24,30,31
07/12/94,17:10:00,0,0,0,0,0,0,0,58,26,0,30,28,28
07/12/94,17:15:00,0,0,0,0,0,0,0,58,26,0,30,37,22
07/12/94,17:20:00,0,0,0,0,0,0,0,58,26,0,26,25,34
07/12/94,17:25:00,0,0,0,0,0,0,0,58,26,0,36,37,22
07/12/94,17:30:00,0,0,0,0,0,0,0,58,26,0,22,24,29
07/12/94,17:35:00,0,0,0,0,0,0,0,58,26,0,34,34,31
07/12/94,17:40:00,0,0,0,0,0,0,0,58,26,0,25,27,21
07/12/94,17:45:00,0,0,0,0,0,0,0,58,26,0,30,30,33
07/12/94,17:50:00,0,0,0,0,0,0,0,58,26,0,31,37,27
07/12/94,17:55:00,0,0,0,0,0,0,0,58,26,0,26,25,23
07/12/94,18:00:00,0,18,0,0,0,0,0,58,26,0,35,36,33
07/12/94,18:05:00,0,11,0,0,0,0,0,59,26,0,23,23,24
07/12/94,18:10:00,24,28,9,0,0,0,0,57,26,0,32,32,26
07/12/94,18:15:00,32,33,46,0,0,0,0,57,26,0,21,20,14
07/12/94,18:20:00,43,29,39,0,0,0,0,57,26,0,17,18,16
07/12/94,18:25:00,31,19,35,0,0,0,0,57,26,0,18,21,15
07/12/94,18:30:00,40,18,18,0,0,0,0,56,25,0,14,14,11
07/12/94,18:35:00,0,23,0,0,0,0,0,57,26,0,11,11,9
07/12/94,18:40:00,9,16,23,0,0,0,0,57,26,0,11,14,8
07/12/94,18:45:00,27,21,16,0,0,0,0,57,26,0,20,24,12
07/12/94,18:50:00,30,15,31,0,0,0,0,57,25,0,18,16,13
07/12/94,18:55:00,3,24,0,0,0,0,0,57,26,0,13,12,10
07/12/94,19:00:00,12,12,1,0,0,0,0,57,26,0,11,14,8
07/12/94,19:05:00,12,22,1,0,0,0,0,57,26,0,19,25,13
07/12/94,19:10:00,0,9,18,0,0,0,0,57,26,0,18,18,17
07/12/94,19:15:00,10,16,2,0,0,0,0,57,26,0,14,15,12
07/12/94,19:20:00,7,16,16,0,0,0,0,57,26,0,19,25,14
07/12/94,19:25:00,30,20,5,0,0,0,0,57,26,0,21,20,18
07/12/94,19:30:00,18,16,10,0,0,0,0,57,26,0,15,16,12
07/12/94,19:35:00,7,14,8,0,0,0,0,57,26,0,20,26,18
07/12/94,19:40:00,14,3,21,0,0,0,0,58,26,0,21,21,17
07/12/94,19:45:00,14,17,17,0,0,0,0,58,26,0,15,16,11
07/12/94,19:50:00,0,24,15,0,0,0,0,57,26,0,21,26,21
07/12/94,19:55:00,10,19,2,0,0,0,0,57,26,0,20,19,15
07/12/94,20:00:00,14,15,1,0,0,0,0,57,26,0,15,19,12
07/12/94,20:05:00,18,4,24,0,0,0,0,57,26,0,24,27,21
07/12/94,20:10:00,18,10,10,0,0,0,0,58,26,0,18,18,14
07/12/94,20:15:00,16,24,12,0,0,0,0,58,26,0,17,21,15
07/12/94,20:20:00,1,10,15,0,0,0,0,58,26,0,24,26,19
07/12/94,20:25:00,11,21,5,0,0,0,0,57,26,0,16,16,13
07/12/94,20:30:00,0,34,0,0,0,0,0,57,26,0,19,23,19
07/12/94,20:35:00,15,20,28,0,0,0,0,57,26,0,19,21,14
07/12/94,20:40:00,0,17,0,0,0,0,0,57,26,0,14,14,11
07/12/94,20:45:00,17,18,6,0,0,0,0,57,26,0,11,20,9
07/12/94,20:50:00,20,17,0,0,0,0,0,57,26,0,18,24,15
07/12/94,20:55:00,11,12,0,0,0,0,0,58,26,0,20,15,16
07/12/94,21:00:00,12,12,8,0,0,0,0,57,26,0,14,20,11
07/12/94,21:05:00,21,15,20,0,0,0,0,57,26,0,19,24,18
07/12/94,21:10:00,13,9,14,0,0,0,0,57,26,0,21,15,17
07/12/94,21:15:00,15,19,0,0,0,0,0,58,26,0,15,23,12
07/12/94,21:20:00,36,16,10,0,0,0,0,57,26,0,21,24,21
07/12/94,21:25:00,8,11,3,0,0,0,0,58,26,0,19,16,15
07/12/94,21:30:00,17,11,7,0,0,0,0,58,26,0,15,25,14
07/12/94,21:35:00,35,8,10,0,0,0,0,58,26,0,23,23,19
07/12/94,21:40:00,7,0,7,0,0,0,0,57,26,0,17,16,12
07/12/94,21:45:00,25,13,10,0,0,0,0,57,26,0,17,25,18
07/12/94,21:50:00,8,12,0,0,0,0,0,57,26,0,22,21,17
07/12/94,21:55:00,4,17,14,0,0,0,0,58,26,0,15,17,12
07/12/94,22:00:00,12,20,0,0,0,0,0,57,26,0,20,27,22
07/12/94,22:05:00,7,14,0,0,0,0,0,58,26,0,20,19,15
07/12/94,22:10:00,29,20,3,0,0,0,0,58,26,0,15,19,15
07/12/94,22:15:00,10,0,23,0,0,0,0,58,26,0,23,27,19
07/12/94,22:20:00,17,8,18,0,0,0,0,57,26,0,17,17,13
07/12/94,22:25:00,28,5,0,0,0,0,0,57,26,0,18,22,19
07/12/94,22:30:00,26,2,3,0,0,0,0,58,26,0,21,24,17
07/12/94,22:35:00,37,0,30,0,0,0,0,58,26,0,15,16,12
07/12/94,22:40:00,2,25,38,0,0,0,0,57,26,0,21,24,20
07/12/94,22:45:00,9,19,4,0,0,0,0,58,26,0,20,21,16
07/12/94,22:50:00,19,7,7,0,0,0,0,58,26,0,15,18,11
07/12/94,22:55:00,14,10,12,0,0,0,0,58,26,0,23,27,22
07/12/94,23:00:00,13,11,0,0,0,0,0,58,26,0,18,19,15
07/12/94,23:05:00,21,12,21,0,0,0,0,57,26,0,16,20,13
07/12/94,23:10:00,1,14,15,0,0,0,0,57,26,0,23,27,20
07/12/94,23:15:00,3,12,8,0,0,0,0,58,26,0,17,18,13
07/12/94,23:20:00,27,7,14,0,0,0,0,58,26,0,18,21,17
07/12/94,23:25:00,19,21,0,0,0,0,0,58,26,0,23,26,18
07/12/94,23:30:00,11,13,4,0,0,0,0,57,26,0,15,16,12
07/12/94,23:35:00,5,6,16,0,0,0,0,57,26,0,20,24,22
07/12/94,23:40:00,22,3,23,0,0,0,0,58,26,0,21,22,16
07/12/94,23:45:00,4,14,14,0,0,0,0,58,26,0,15,17,13
07/12/94,23:50:00,24,3,8,0,0,0,0,57,26,0,23,27,21
07/12/94,23:55:00,19,7,5,0,0,0,0,58,26,0,18,20,13
07/13/94,00:00:00,10,5,0,0,0,0,0,58,26,0,16,19,17
